• In Uzbekistan
  • List of Countries
  • For 7 days
  • Water Temperature
  • Satellite Maps
  • Weather Map
  • Weather Widgets
  • user-avatar
    Login

    Hourly Weather Storozhevsk

    Today, 19 June, Tuesday

    Time Temperature Precipitation Wind Pressure Humidity
    00:00 +15°C° 0 mm 2 mps 747 mmHg 69%
    01:00 +14°C° 0 mm 1 mps 747 mmHg 72%
    02:00 +14°C° 0 mm 1 mps 747 mmHg 75%
    03:00 +13°C° 0 mm 1 mps 747 mmHg 77%
    04:00 +15°C° 0 mm 1 mps 747 mmHg 69%
    05:00 +18°C° 0 mm 1 mps 747 mmHg 62%
    06:00 +19°C° 0 mm 1 mps 747 mmHg 54%
    07:00 +20°C° 0 mm 2 mps 747 mmHg 48%
    08:00 +23°C° 0 mm 2 mps 746 mmHg 41%
    09:00 +24°C° 0 mm 3 mps 746 mmHg 34%
    10:00 +25°C° 0 mm 3 mps 746 mmHg 32%
    11:00 +26°C° 0 mm 3 mps 745 mmHg 30%
    12:00 +26°C° 0 mm 3 mps 745 mmHg 28%
    13:00 +26°C° 0 mm 2 mps 745 mmHg 27%
    14:00 +27°C° 0 mm 2 mps 744 mmHg 27%
    15:00 +27°C° 0 mm 2 mps 744 mmHg 26%
    16:00 +26°C° 0 mm 2 mps 744 mmHg 29%
    17:00 +25°C° 0 mm 1 mps 743 mmHg 33%
    18:00 +25°C° 0 mm 1 mps 743 mmHg 36%
    19:00 +23°C° 0 mm 1 mps 742 mmHg 41%
    20:00 +20°C° 0 mm 1 mps 742 mmHg 47%
    21:00 +18°C° 0 mm 1 mps 742 mmHg 52%
    22:00 +18°C° 0 mm 1 mps 741 mmHg 55%
    23:00 +16°C° 0 mm 2 mps 741 mmHg 57%

    Tomorrow, 20 June, Wednesday

    Time Temperature Precipitation Wind Pressure Humidity
    00:00 +15°C° 0 mm 2 mps 740 mmHg 60%
    01:00 +15°C° 0.1 mm 2 mps 740 mmHg 62%
    02:00 +15°C° 0.1 mm 2 mps 739 mmHg 64%
    03:00 +14°C° 0.1 mm 2 mps 739 mmHg 67%
    04:00 +16°C° 0 mm 2 mps 738 mmHg 65%
    05:00 +18°C° 0 mm 2 mps 737 mmHg 63%
    06:00 +19°C° 0 mm 3 mps 737 mmHg 62%
    07:00 +20°C° 0.7 mm 3 mps 736 mmHg 66%
    08:00 +20°C° 0.7 mm 4 mps 735 mmHg 70%
    09:00 +20°C° 0.7 mm 4 mps 734 mmHg 74%
    10:00 +20°C° 1.2 mm 4 mps 733 mmHg 78%
    11:00 +19°C° 1.2 mm 3 mps 733 mmHg 83%
    12:00 +18°C° 1.2 mm 3 mps 732 mmHg 87%
    13:00 +18°C° 1.2 mm 3 mps 731 mmHg 89%
    14:00 +17°C° 1.2 mm 3 mps 731 mmHg 91%
    15:00 +17°C° 1.2 mm 3 mps 731 mmHg 92%
    16:00 +14°C° 1 mm 3 mps 730 mmHg 93%
    17:00 +13°C° 1 mm 4 mps 730 mmHg 93%
    18:00 +12°C° 1 mm 4 mps 730 mmHg 93%
    19:00 +12°C° 0.4 mm 4 mps 730 mmHg 93%
    20:00 +11°C° 0.4 mm 4 mps 730 mmHg 94%
    21:00 +11°C° 0.4 mm 4 mps 729 mmHg 94%
    22:00 +10°C° 0.3 mm 4 mps 729 mmHg 94%
    23:00 +10°C° 0.3 mm 4 mps 729 mmHg 94%

    Day after tomorrow, 21 June, Thursday

    Time Temperature Precipitation Wind Pressure Humidity
    00:00 +10°C° 0.3 mm 3 mps 728 mmHg 94%
    01:00 +10°C° 0.5 mm 3 mps 728 mmHg 95%
    02:00 +9°C° 0.5 mm 3 mps 728 mmHg 95%
    03:00 +9°C° 0.5 mm 3 mps 728 mmHg 96%
    04:00 +10°C° 0.4 mm 2 mps 728 mmHg 96%
    05:00 +10°C° 0.4 mm 2 mps 729 mmHg 96%
    06:00 +10°C° 0.4 mm 2 mps 729 mmHg 96%
    07:00 +11°C° 0.3 mm 3 mps 729 mmHg 96%
    08:00 +12°C° 0.3 mm 3 mps 730 mmHg 95%
    09:00 +12°C° 0.3 mm 3 mps 731 mmHg 95%
    10:00 +12°C° 0.4 mm 4 mps 732 mmHg 94%
    11:00 +12°C° 0.4 mm 4 mps 732 mmHg 94%
    12:00 +12°C° 0.4 mm 5 mps 733 mmHg 93%
    13:00 +12°C° 0.3 mm 5 mps 734 mmHg 93%
    14:00 +12°C° 0.3 mm 5 mps 734 mmHg 93%
    15:00 +12°C° 0.3 mm 5 mps 735 mmHg 93%
    16:00 +12°C° 0.2 mm 5 mps 736 mmHg 92%
    17:00 +12°C° 0.2 mm 5 mps 736 mmHg 91%
    18:00 +12°C° 0.2 mm 5 mps 737 mmHg 90%
    19:00 +12°C° 0 mm 5 mps 738 mmHg 88%
    20:00 +12°C° 0 mm 5 mps 738 mmHg 87%
    21:00 +11°C° 0 mm 4 mps 739 mmHg 86%
    22:00 +11°C° 0 mm 4 mps 739 mmHg 84%
    23:00 +11°C° 0 mm 4 mps 739 mmHg 83%

    22 June, Friday

    Time Temperature Precipitation Wind Pressure Humidity
    00:00 +11°C° 0 mm 4 mps 740 mmHg 81%
    01:00 +11°C° 0 mm 4 mps 740 mmHg 82%
    02:00 +11°C° 0 mm 4 mps 741 mmHg 83%
    03:00 +11°C° 0 mm 3 mps 741 mmHg 84%
    04:00 +12°C° 0 mm 4 mps 741 mmHg 78%
    05:00 +13°C° 0 mm 4 mps 742 mmHg 72%
    06:00 +14°C° 0 mm 4 mps 742 mmHg 66%
    07:00 +16°C° 0 mm 5 mps 742 mmHg 58%
    08:00 +17°C° 0 mm 5 mps 743 mmHg 49%
    09:00 +20°C° 0 mm 5 mps 743 mmHg 40%
    10:00 +21°C° 0 mm 5 mps 743 mmHg 38%
    11:00 +22°C° 0 mm 5 mps 743 mmHg 35%
    12:00 +22°C° 0 mm 5 mps 744 mmHg 33%
    13:00 +23°C° 0 mm 5 mps 744 mmHg 32%
    14:00 +23°C° 0 mm 4 mps 744 mmHg 31%
    15:00 +23°C° 0 mm 4 mps 744 mmHg 31%
    16:00 +24°C° 0 mm 3 mps 744 mmHg 34%
    17:00 +24°C° 0 mm 3 mps 744 mmHg 37%
    18:00 +23°C° 0 mm 2 mps 745 mmHg 40%
    19:00 +20°C° 0 mm 2 mps 745 mmHg 47%
    20:00 +18°C° 0 mm 2 mps 745 mmHg 55%
    21:00 +16°C° 0 mm 1 mps 745 mmHg 62%
    22:00 +15°C° 0 mm 1 mps 745 mmHg 64%
    23:00 +14°C° 0 mm 1 mps 746 mmHg 66%

    23 June, Saturday

    Time Temperature Precipitation Wind Pressure Humidity
    00:00 +13°C° 0 mm 1 mps 746 mmHg 68%
    01:00 +14°C° 0 mm 1 mps 746 mmHg 68%
    02:00 +14°C° 0 mm 1 mps 746 mmHg 69%
    03:00 +14°C° 0 mm 1 mps 746 mmHg 69%
    04:00 +16°C° 0 mm 1 mps 746 mmHg 65%
    05:00 +17°C° 0 mm 2 mps 746 mmHg 61%
    06:00 +19°C° 0 mm 2 mps 746 mmHg 57%
    07:00 +21°C° 0 mm 2 mps 746 mmHg 54%
    08:00 +24°C° 0 mm 2 mps 746 mmHg 51%
    09:00 +26°C° 0 mm 3 mps 746 mmHg 48%
    10:00 +27°C° 0 mm 3 mps 746 mmHg 48%
    11:00 +28°C° 0 mm 3 mps 746 mmHg 48%
    12:00 +29°C° 0 mm 3 mps 746 mmHg 47%
    13:00 +29°C° 0 mm 2 mps 746 mmHg 47%
    14:00 +29°C° 0 mm 2 mps 746 mmHg 48%
    15:00 +30°C° 0 mm 1 mps 746 mmHg 48%
    16:00 +29°C° 0 mm 1 mps 746 mmHg 52%
    17:00 +28°C° 0 mm 1 mps 746 mmHg 57%
    18:00 +25°C° 0 mm 0 mps 746 mmHg 61%
    19:00 +26°C° 0 mm 1 mps 746 mmHg 67%
    20:00 +24°C° 0 mm 1 mps 746 mmHg 72%
    21:00 +23°C° 0 mm 1 mps 746 mmHg 77%
    22:00 +22°C° 0 mm 1 mps 746 mmHg 79%
    23:00 +22°C° 0 mm 1 mps 746 mmHg 81%

    24 June, Sunday

    Time Temperature Precipitation Wind Pressure Humidity
    00:00 +21°C° 0 mm 1 mps 746 mmHg 84%
    01:00 +21°C° 0 mm 1 mps 746 mmHg 85%
    02:00 +21°C° 0 mm 1 mps 746 mmHg 87%
    03:00 +20°C° 0 mm 1 mps 746 mmHg 89%
    04:00 +21°C° 0 mm 2 mps 746 mmHg 83%
    05:00 +24°C° 0 mm 2 mps 746 mmHg 77%
    06:00 +25°C° 0 mm 2 mps 746 mmHg 71%
    07:00 +27°C° 0.1 mm 2 mps 746 mmHg 63%
    08:00 +29°C° 0.1 mm 3 mps 746 mmHg 54%
    09:00 +31°C° 0.1 mm 3 mps 746 mmHg 45%
    10:00 +31°C° 0 mm 3 mps 745 mmHg 42%
    11:00 +33°C° 0 mm 4 mps 745 mmHg 39%
    12:00 +34°C° 0 mm 4 mps 745 mmHg 35%
    13:00 +34°C° 0 mm 4 mps 745 mmHg 36%
    14:00 +33°C° 0 mm 3 mps 745 mmHg 37%
    15:00 +33°C° 0 mm 3 mps 745 mmHg 38%
    16:00 +31°C° 0.1 mm 3 mps 745 mmHg 44%
    17:00 +29°C° 0.1 mm 3 mps 745 mmHg 50%
    18:00 +28°C° 0.1 mm 3 mps 745 mmHg 56%
    19:00 +26°C° 0.5 mm 2 mps 745 mmHg 67%
    20:00 +24°C° 0.5 mm 1 mps 745 mmHg 77%
    21:00 +21°C° 0.5 mm 1 mps 745 mmHg 88%
    22:00 +21°C° 0.3 mm 1 mps 745 mmHg 89%
    23:00 +20°C° 0.3 mm 2 mps 745 mmHg 91%
    Show more